This is the latest recevied weather packets stored in our database for station/object N0NPO. If no packets are shown the sender has not sent any weather packets the latest 10 day(s).
| Time | Temp. | Humidity | Pressure | Rain* | Wind** | Luminosity | Snow |
|---|---|---|---|---|---|---|---|
| 1778141059 | 1.67° C | 1% | 1014.1 hPa | 0 mm | - | 0 W/m² | - |
| 1778140755 | 1.11° C | 1% | 1014.2 hPa | 0 mm | - | 0 W/m² | - |
| 1778140451 | 1.67° C | 1% | 1014.2 hPa | 0 mm | - | 0 W/m² | - |
| 1778140148 | 1.67° C | 1% | 1014.2 hPa | 0 mm | - | 0 W/m² | - |
| 1778139845 | 1.67° C | 1% | 1014.2 hPa | 0 mm | - | 0 W/m² | - |
| 1778139543 | 1.67° C | 1% | 1014.4 hPa | 0 mm | - | 0 W/m² | - |
| 1778139238 | 1.67° C | 1% | 1014.4 hPa | 0 mm | - | 0 W/m² | - |
| 1778138936 | 1.67° C | 1% | 1014.3 hPa | 0 mm | - | 0 W/m² | - |
| 1778138633 | 1.67° C | 1% | 1014.5 hPa | 0 mm | - | 0 W/m² | - |
| 1778138331 | 2.78° C | 1% | 1014.5 hPa | 0 mm | - | 0 W/m² | - |
| 1778138028 | 3.33° C | 1% | 1014.5 hPa | 0 mm | - | 0 W/m² | - |
| 1778137723 | 3.33° C | 1% | 1014.3 hPa | 0 mm | - | 0 W/m² | - |
| 1778137421 | 3.33° C | 1% | 1014.3 hPa | 0 mm | - | 0 W/m² | - |
| 1778137118 | 3.89° C | 1% | 1014.5 hPa | 0 mm | - | 0 W/m² | - |
| 1778136815 | 3.33° C | 1% | 1014.6 hPa | 0 mm | - | 0 W/m² | - |
| 1778136512 | 3.33° C | 1% | 1014.6 hPa | 0 mm | - | 0 W/m² | - |
| 1778136210 | 3.89° C | 1% | 1014.3 hPa | 0 mm | - | 0 W/m² | - |
| 1778135908 | 4.44° C | 1% | 1014.3 hPa | 0 mm | - | 0 W/m² | - |
| 1778135604 | 4.44° C | 1% | 1014.3 hPa | 0 mm | - | 0 W/m² | - |
| 1778135301 | 5° C | 1% | 1014.3 hPa | 0 mm | - | 0 W/m² | - |
| 1778134998 | 5° C | 1% | 1014.4 hPa | 0 mm | - | 0 W/m² | - |
| 1778134696 | 5.56° C | 1% | 1014.4 hPa | 0 mm | - | 0 W/m² | - |
| 1778134394 | 6.11° C | 1% | 1014.4 hPa | 0 mm | - | 0 W/m² | - |
| 1778134092 | 6.11° C | 1% | 1014.5 hPa | 0 mm | - | 0 W/m² | - |
| 1778133788 | 6.67° C | 1% | 1014.6 hPa | 0 mm | - | 0 W/m² | - |
* Rain latest hour (hover to see other rain measurements)
** Current wind speed in m/s (hover to see current wind gust speed)